owner,sensor,date,latitude,longitude,vertical_datum,sea_water_temperature,qcFlag 
TABS,ioos:station:wmo:42044:1,2015-03-16T00:00:00Z,26.1914,-97.0507,-2.0,17.12,11111222 
TABS,ioos:station:wmo:42044:1,2015-03-16T00:30:00Z,26.1914,-97.0507,-2.0,16.25,11111222 
TABS,ioos:station:wmo:42044:1,2015-03-16T01:00:00Z,26.1914,-97.0507,-2.0,15.76,11111222 
TABS,ioos:station:wmo:42044:1,2015-03-16T01:30:00Z,26.1914,-97.0507,-2.0,15.37,11111222 
TABS,ioos:station:wmo:42044:1,2015-03-16T02:00:00Z,26.1914,-97.0507,-2.0,15.23,11111222 
TABS,ioos:station:wmo:42044:1,2015-03-16T02:30:00Z,26.1914,-97.0507,-2.0,14.72,11111222 
TABS,ioos:station:wmo:42044:1,2015-03-16T03:00:00Z,26.1914,-97.0507,-2.0,14.63,11111222 
TABS,ioos:station:wmo:42044:1,2015-03-16T03:30:00Z,26.1914,-97.0507,-2.0,14.6,11111222 
TABS,ioos:station:wmo:42044:1,2015-03-16T04:00:00Z,26.1914,-97.0507,-2.0,14.58,11111222 
TABS,ioos:station:wmo:42044:1,2015-03-16T04:30:00Z,26.1914,-97.0507,-2.0,14.56,11111222 
TABS,ioos:station:wmo:42044:1,2015-03-16T05:00:00Z,26.1914,-97.0507,-2.0,14.52,11111222 
TABS,ioos:station:wmo:42044:1,2015-03-16T05:30:00Z,26.1914,-97.0507,-2.0,14.5,11111222 
TABS,ioos:station:wmo:42044:1,2015-03-16T06:00:00Z,26.1914,-97.0507,-2.0,14.53,11111222 
TABS,ioos:station:wmo:42044:1,2015-03-16T06:30:00Z,26.1914,-97.0507,-2.0,14.54,11111222 
TABS,ioos:station:wmo:42044:1,2015-03-16T07:00:00Z,26.1914,-97.0507,-2.0,14.56,11111222 
TABS,ioos:station:wmo:42044:1,2015-03-16T07:30:00Z,26.1914,-97.0507,-2.0,14.61,11111222 
TABS,ioos:station:wmo:42044:1,2015-03-16T08:00:00Z,26.1914,-97.0507,-2.0,14.6,11111222 
TABS,ioos:station:wmo:42044:1,2015-03-16T08:30:00Z,26.1914,-97.0507,-2.0,14.68,11111222 
TABS,ioos:station:wmo:42044:1,2015-03-16T09:00:00Z,26.1914,-97.0507,-2.0,14.73,11111222 
TABS,ioos:station:wmo:42044:1,2015-03-16T09:30:00Z,26.1914,-97.0507,-2.0,14.84,11111222 
TABS,ioos:station:wmo:42044:1,2015-03-16T10:00:00Z,26.1914,-97.0507,-2.0,14.89,11111222 
TABS,ioos:station:wmo:42044:1,2015-03-16T10:30:00Z,26.1914,-97.0507,-2.0,14.86,11111222 
TABS,ioos:station:wmo:42044:1,2015-03-16T11:00:00Z,26.1914,-97.0507,-2.0,14.9,11111222 
TABS,ioos:station:wmo:42044:1,2015-03-16T11:30:00Z,26.1914,-97.0507,-2.0,14.77,11111222 
TABS,ioos:station:wmo:42044:1,2015-03-16T12:00:00Z,26.1914,-97.0507,-2.0,14.67,11111222 
TABS,ioos:station:wmo:42044:1,2015-03-16T12:30:00Z,26.1914,-97.0507,-2.0,14.63,11111222 
TABS,ioos:station:wmo:42044:1,2015-03-16T13:00:00Z,26.1914,-97.0507,-2.0,14.62,11111222 
TABS,ioos:station:wmo:42044:1,2015-03-16T13:30:00Z,26.1914,-97.0507,-2.0,14.7,11111222 
TABS,ioos:station:wmo:42044:1,2015-03-16T14:00:00Z,26.1914,-97.0507,-2.0,14.76,11111222 
TABS,ioos:station:wmo:42044:1,2015-03-16T14:30:00Z,26.1914,-97.0507,-2.0,14.74,11111222 
TABS,ioos:station:wmo:42044:1,2015-03-16T15:00:00Z,26.1914,-97.0507,-2.0,14.62,11111222 
TABS,ioos:station:wmo:42044:1,2015-03-16T15:30:00Z,26.1914,-97.0507,-2.0,14.65,11111222 
TABS,ioos:station:wmo:42044:1,2015-03-16T16:00:00Z,26.1914,-97.0507,-2.0,14.71,11111222 
TABS,ioos:station:wmo:42044:1,2015-03-16T16:30:00Z,26.1914,-97.0507,-2.0,14.71,11111222 
TABS,ioos:station:wmo:42044:1,2015-03-16T17:00:00Z,26.1914,-97.0507,-2.0,14.82,11111222 
TABS,ioos:station:wmo:42044:1,2015-03-16T17:30:00Z,26.1914,-97.0507,-2.0,14.89,11111222 
TABS,ioos:station:wmo:42044:1,2015-03-16T18:00:00Z,26.1914,-97.0507,-2.0,14.94,11111222 
TABS,ioos:station:wmo:42044:1,2015-03-16T18:30:00Z,26.1914,-97.0507,-2.0,14.96,11111222 
TABS,ioos:station:wmo:42044:1,2015-03-16T19:00:00Z,26.1914,-97.0507,-2.0,14.95,11111222 
TABS,ioos:station:wmo:42044:1,2015-03-16T19:30:00Z,26.1914,-97.0507,-2.0,14.96,11111222 
TABS,ioos:station:wmo:42044:1,2015-03-16T20:00:00Z,26.1914,-97.0507,-2.0,14.9,11111222 
TABS,ioos:station:wmo:42044:1,2015-03-16T20:30:00Z,26.1914,-97.0507,-2.0,14.86,11111222 
TABS,ioos:station:wmo:42044:1,2015-03-16T21:00:00Z,26.1914,-97.0507,-2.0,14.84,11111222 
TABS,ioos:station:wmo:42044:1,2015-03-16T21:30:00Z,26.1914,-97.0507,-2.0,14.82,11111222 
TABS,ioos:station:wmo:42044:1,2015-03-16T22:00:00Z,26.1914,-97.0507,-2.0,14.82,11111222 
TABS,ioos:station:wmo:42044:1,2015-03-16T22:30:00Z,26.1914,-97.0507,-2.0,14.81,11111222 
TABS,ioos:station:wmo:42044:1,2015-03-16T23:00:00Z,26.1914,-97.0507,-2.0,14.82,11111222 
TABS,ioos:station:wmo:42044:1,2015-03-16T23:30:00Z,26.1914,-97.0507,-2.0,14.83,11111222 
TABS,ioos:station:wmo:42044:1,2015-03-17T00:00:00Z,26.1914,-97.0507,-2.0,14.92,11111222 
TABS,ioos:station:wmo:42044:1,2015-03-17T00:30:00Z,26.1914,-97.0507,-2.0,14.94,11111222 
TABS,ioos:station:wmo:42044:1,2015-03-17T01:00:00Z,26.1914,-97.0507,-2.0,14.9,11111222 
TABS,ioos:station:wmo:42044:1,2015-03-17T01:30:00Z,26.1914,-97.0507,-2.0,14.93,11111222 
TABS,ioos:station:wmo:42044:1,2015-03-17T02:00:00Z,26.1914,-97.0507,-2.0,14.92,11111222 
TABS,ioos:station:wmo:42044:1,2015-03-17T02:30:00Z,26.1914,-97.0507,-2.0,14.88,11111222 
TABS,ioos:station:wmo:42044:1,2015-03-17T03:00:00Z,26.1914,-97.0507,-2.0,14.88,11111222 
TABS,ioos:station:wmo:42044:1,2015-03-17T03:30:00Z,26.1914,-97.0507,-2.0,14.83,11111222 
TABS,ioos:station:wmo:42044:1,2015-03-17T04:00:00Z,26.1914,-97.0507,-2.0,14.8,11111222 
TABS,ioos:station:wmo:42044:1,2015-03-17T04:30:00Z,26.1914,-97.0507,-2.0,14.94,11111222 
TABS,ioos:station:wmo:42044:1,2015-03-17T05:00:00Z,26.1914,-97.0507,-2.0,14.93,11111222 
TABS,ioos:station:wmo:42044:1,2015-03-17T05:30:00Z,26.1914,-97.0507,-2.0,15.01,11111222 
TABS,ioos:station:wmo:42044:1,2015-03-17T06:00:00Z,26.1914,-97.0507,-2.0,15.02,11111222 
TABS,ioos:station:wmo:42044:1,2015-03-17T06:30:00Z,26.1914,-97.0507,-2.0,14.94,11111222 
TABS,ioos:station:wmo:42044:1,2015-03-17T07:00:00Z,26.1914,-97.0507,-2.0,14.87,11111222 
TABS,ioos:station:wmo:42044:1,2015-03-17T07:30:00Z,26.1914,-97.0507,-2.0,14.89,11111222 
TABS,ioos:station:wmo:42044:1,2015-03-17T08:00:00Z,26.1914,-97.0507,-2.0,14.87,11111222 
TABS,ioos:station:wmo:42044:1,2015-03-17T08:30:00Z,26.1914,-97.0507,-2.0,14.91,11111222 
TABS,ioos:station:wmo:42044:1,2015-03-17T09:00:00Z,26.1914,-97.0507,-2.0,15.33,11111222 
TABS,ioos:station:wmo:42044:1,2015-03-17T09:30:00Z,26.1914,-97.0507,-2.0,15.49,11111222 
TABS,ioos:station:wmo:42044:1,2015-03-17T10:00:00Z,26.1914,-97.0507,-2.0,15.43,11111222 
TABS,ioos:station:wmo:42044:1,2015-03-17T10:30:00Z,26.1914,-97.0507,-2.0,15.47,11111222 
TABS,ioos:station:wmo:42044:1,2015-03-17T11:00:00Z,26.1914,-97.0507,-2.0,15.46,11111222 
TABS,ioos:station:wmo:42044:1,2015-03-17T11:30:00Z,26.1914,-97.0507,-2.0,15.42,11111222 
TABS,ioos:station:wmo:42044:1,2015-03-17T12:00:00Z,26.1914,-97.0507,-2.0,15.32,11111222 
TABS,ioos:station:wmo:42044:1,2015-03-17T12:30:00Z,26.1914,-97.0507,-2.0,15.24,11111222 
TABS,ioos:station:wmo:42044:1,2015-03-17T13:00:00Z,26.1914,-97.0507,-2.0,15.45,11111222 
TABS,ioos:station:wmo:42044:1,2015-03-17T13:30:00Z,26.1914,-97.0507,-2.0,15.69,11111222 
TABS,ioos:station:wmo:42044:1,2015-03-17T14:00:00Z,26.1914,-97.0507,-2.0,15.85,11111222 
TABS,ioos:station:wmo:42044:1,2015-03-17T14:30:00Z,26.1914,-97.0507,-2.0,15.78,11111222 
TABS,ioos:station:wmo:42044:1,2015-03-17T15:00:00Z,26.1914,-97.0507,-2.0,15.92,11111222 
TABS,ioos:station:wmo:42044:1,2015-03-17T15:30:00Z,26.1914,-97.0507,-2.0,16.02,11111222 
TABS,ioos:station:wmo:42044:1,2015-03-17T16:00:00Z,26.1914,-97.0507,-2.0,15.96,11111222 
TABS,ioos:station:wmo:42044:1,2015-03-17T16:30:00Z,26.1914,-97.0507,-2.0,15.9,11111222 
TABS,ioos:station:wmo:42044:1,2015-03-17T17:00:00Z,26.1914,-97.0507,-2.0,15.96,11111222 
TABS,ioos:station:wmo:42044:1,2015-03-17T17:30:00Z,26.1914,-97.0507,-2.0,15.93,11111222 
TABS,ioos:station:wmo:42044:1,2015-03-17T18:00:00Z,26.1914,-97.0507,-2.0,15.98,11111222 
TABS,ioos:station:wmo:42044:1,2015-03-17T18:30:00Z,26.1914,-97.0507,-2.0,15.96,11111222 
TABS,ioos:station:wmo:42044:1,2015-03-17T19:00:00Z,26.1914,-97.0507,-2.0,15.82,11111222 
TABS,ioos:station:wmo:42044:1,2015-03-17T19:30:00Z,26.1914,-97.0507,-2.0,15.82,11111222 
TABS,ioos:station:wmo:42044:1,2015-03-17T20:00:00Z,26.1914,-97.0507,-2.0,15.84,11111222 
TABS,ioos:station:wmo:42044:1,2015-03-17T20:30:00Z,26.1914,-97.0507,-2.0,16.0,11111222 
TABS,ioos:station:wmo:42044:1,2015-03-17T21:00:00Z,26.1914,-97.0507,-2.0,16.16,11111222 
TABS,ioos:station:wmo:42044:1,2015-03-17T21:30:00Z,26.1914,-97.0507,-2.0,16.27,11111222 
TABS,ioos:station:wmo:42044:1,2015-03-17T22:00:00Z,26.1914,-97.0507,-2.0,16.25,11111222 
TABS,ioos:station:wmo:42044:1,2015-03-17T22:30:00Z,26.1914,-97.0507,-2.0,16.5,11111222 
TABS,ioos:station:wmo:42044:1,2015-03-17T23:00:00Z,26.1914,-97.0507,-2.0,16.33,11111222 
TABS,ioos:station:wmo:42044:1,2015-03-17T23:30:00Z,26.1914,-97.0507,-2.0,16.21,11111222 
TABS,ioos:station:wmo:42044:1,2015-03-18T00:00:00Z,26.1914,-97.0507,-2.0,16.19,11111222 
TABS,ioos:station:wmo:42044:1,2015-03-18T00:30:00Z,26.1914,-97.0507,-2.0,16.16,11111222 
TABS,ioos:station:wmo:42044:1,2015-03-18T01:00:00Z,26.1914,-97.0507,-2.0,16.15,11111222 
TABS,ioos:station:wmo:42044:1,2015-03-18T01:30:00Z,26.1914,-97.0507,-2.0,16.17,11111222 
TABS,ioos:station:wmo:42044:1,2015-03-18T02:00:00Z,26.1914,-97.0507,-2.0,16.1,11111222 
TABS,ioos:station:wmo:42044:1,2015-03-18T02:30:00Z,26.1914,-97.0507,-2.0,16.09,11111222 
TABS,ioos:station:wmo:42044:1,2015-03-18T03:00:00Z,26.1914,-97.0507,-2.0,16.07,11111222 
TABS,ioos:station:wmo:42044:1,2015-03-18T03:30:00Z,26.1914,-97.0507,-2.0,16.02,11111222 
TABS,ioos:station:wmo:42044:1,2015-03-18T04:00:00Z,26.1914,-97.0507,-2.0,16.05,11111222 
TABS,ioos:station:wmo:42044:1,2015-03-18T04:30:00Z,26.1914,-97.0507,-2.0,16.02,11111222 
TABS,ioos:station:wmo:42044:1,2015-03-18T05:00:00Z,26.1914,-97.0507,-2.0,15.97,11111222 
TABS,ioos:station:wmo:42044:1,2015-03-18T05:30:00Z,26.1914,-97.0507,-2.0,15.94,11111222 
TABS,ioos:station:wmo:42044:1,2015-03-18T06:00:00Z,26.1914,-97.0507,-2.0,15.92,11111222 
TABS,ioos:station:wmo:42044:1,2015-03-18T06:30:00Z,26.1914,-97.0507,-2.0,15.99,11111222 
TABS,ioos:station:wmo:42044:1,2015-03-18T07:00:00Z,26.1914,-97.0507,-2.0,15.91,11111222 
TABS,ioos:station:wmo:42044:1,2015-03-18T07:30:00Z,26.1914,-97.0507,-2.0,15.9,11111222 
TABS,ioos:station:wmo:42044:1,2015-03-18T08:00:00Z,26.1914,-97.0507,-2.0,15.89,11111222 
TABS,ioos:station:wmo:42044:1,2015-03-18T08:30:00Z,26.1914,-97.0507,-2.0,15.98,11111222 
TABS,ioos:station:wmo:42044:1,2015-03-18T09:00:00Z,26.1914,-97.0507,-2.0,16.04,11111222 
TABS,ioos:station:wmo:42044:1,2015-03-18T09:30:00Z,26.1914,-97.0507,-2.0,16.05,11111222 
TABS,ioos:station:wmo:42044:1,2015-03-18T10:00:00Z,26.1914,-97.0507,-2.0,15.89,11111222 
TABS,ioos:station:wmo:42044:1,2015-03-18T10:30:00Z,26.1914,-97.0507,-2.0,15.66,11111222 
TABS,ioos:station:wmo:42044:1,2015-03-18T11:00:00Z,26.1914,-97.0507,-2.0,15.42,11111222 
TABS,ioos:station:wmo:42044:1,2015-03-18T11:30:00Z,26.1914,-97.0507,-2.0,15.28,11111222 
TABS,ioos:station:wmo:42044:1,2015-03-18T12:00:00Z,26.1914,-97.0507,-2.0,15.68,11111222 
TABS,ioos:station:wmo:42044:1,2015-03-18T12:30:00Z,26.1914,-97.0507,-2.0,15.79,11111222 
TABS,ioos:station:wmo:42044:1,2015-03-18T13:00:00Z,26.1914,-97.0507,-2.0,15.82,11111222 
TABS,ioos:station:wmo:42044:1,2015-03-18T13:30:00Z,26.1914,-97.0507,-2.0,15.7,11111222 
TABS,ioos:station:wmo:42044:1,2015-03-18T14:00:00Z,26.1914,-97.0507,-2.0,15.38,11111222 
TABS,ioos:station:wmo:42044:1,2015-03-18T14:30:00Z,26.1914,-97.0507,-2.0,15.13,11111222 
TABS,ioos:station:wmo:42044:1,2015-03-18T15:00:00Z,26.1914,-97.0507,-2.0,15.01,11111222 
TABS,ioos:station:wmo:42044:1,2015-03-18T15:30:00Z,26.1914,-97.0507,-2.0,14.7,11111222 
TABS,ioos:station:wmo:42044:1,2015-03-18T16:00:00Z,26.1914,-97.0507,-2.0,14.63,11111222 
TABS,ioos:station:wmo:42044:1,2015-03-18T16:30:00Z,26.1914,-97.0507,-2.0,14.77,11111222 
TABS,ioos:station:wmo:42044:1,2015-03-18T17:00:00Z,26.1914,-97.0507,-2.0,14.73,11111222 
TABS,ioos:station:wmo:42044:1,2015-03-18T17:30:00Z,26.1914,-97.0507,-2.0,14.72,11111222 
TABS,ioos:station:wmo:42044:1,2015-03-18T18:00:00Z,26.1914,-97.0507,-2.0,14.71,11111222 
TABS,ioos:station:wmo:42044:1,2015-03-18T18:30:00Z,26.1914,-97.0507,-2.0,14.92,11111222 
TABS,ioos:station:wmo:42044:1,2015-03-18T19:00:00Z,26.1914,-97.0507,-2.0,14.9,11111222 
TABS,ioos:station:wmo:42044:1,2015-03-18T19:30:00Z,26.1914,-97.0507,-2.0,14.85,11111222 
TABS,ioos:station:wmo:42044:1,2015-03-18T20:00:00Z,26.1914,-97.0507,-2.0,14.88,11111222 
TABS,ioos:station:wmo:42044:1,2015-03-18T20:30:00Z,26.1914,-97.0507,-2.0,14.99,11111222 
TABS,ioos:station:wmo:42044:1,2015-03-18T21:00:00Z,26.1914,-97.0507,-2.0,15.25,11111222 
TABS,ioos:station:wmo:42044:1,2015-03-18T21:30:00Z,26.1914,-97.0507,-2.0,15.33,11111222 
TABS,ioos:station:wmo:42044:1,2015-03-18T22:00:00Z,26.1914,-97.0507,-2.0,15.32,11111222 
TABS,ioos:station:wmo:42044:1,2015-03-18T22:30:00Z,26.1914,-97.0507,-2.0,15.5,11111222 
TABS,ioos:station:wmo:42044:1,2015-03-18T23:00:00Z,26.1914,-97.0507,-2.0,15.61,11111222 
TABS,ioos:station:wmo:42044:1,2015-03-18T23:30:00Z,26.1914,-97.0507,-2.0,15.52,11111222 
TABS,ioos:station:wmo:42044:1,2015-03-19T00:00:00Z,26.1914,-97.0507,-2.0,15.18,11111222 
TABS,ioos:station:wmo:42044:1,2015-03-19T00:30:00Z,26.1914,-97.0507,-2.0,15.18,11111222 
TABS,ioos:station:wmo:42044:1,2015-03-19T01:00:00Z,26.1914,-97.0507,-2.0,15.18,11111222 
TABS,ioos:station:wmo:42044:1,2015-03-19T01:30:00Z,26.1914,-97.0507,-2.0,15.19,11111222 
TABS,ioos:station:wmo:42044:1,2015-03-19T02:00:00Z,26.1914,-97.0507,-2.0,15.17,11111222 
TABS,ioos:station:wmo:42044:1,2015-03-19T02:30:00Z,26.1914,-97.0507,-2.0,15.14,11111222 
TABS,ioos:station:wmo:42044:1,2015-03-19T03:00:00Z,26.1914,-97.0507,-2.0,15.11,11111222 
TABS,ioos:station:wmo:42044:1,2015-03-19T03:30:00Z,26.1914,-97.0507,-2.0,15.18,11111222 
TABS,ioos:station:wmo:42044:1,2015-03-19T04:00:00Z,26.1914,-97.0507,-2.0,15.22,11111222 
TABS,ioos:station:wmo:42044:1,2015-03-19T04:30:00Z,26.1914,-97.0507,-2.0,15.17,11111222 
TABS,ioos:station:wmo:42044:1,2015-03-19T05:00:00Z,26.1914,-97.0507,-2.0,15.16,11111222 
TABS,ioos:station:wmo:42044:1,2015-03-19T05:30:00Z,26.1914,-97.0507,-2.0,15.14,11111222 
TABS,ioos:station:wmo:42044:1,2015-03-19T06:00:00Z,26.1914,-97.0507,-2.0,15.13,11111222 
TABS,ioos:station:wmo:42044:1,2015-03-19T06:30:00Z,26.1914,-97.0507,-2.0,15.1,11111222 
TABS,ioos:station:wmo:42044:1,2015-03-19T07:00:00Z,26.1914,-97.0507,-2.0,15.08,11111222 
TABS,ioos:station:wmo:42044:1,2015-03-19T07:30:00Z,26.1914,-97.0507,-2.0,15.07,11111222 
TABS,ioos:station:wmo:42044:1,2015-03-19T08:00:00Z,26.1914,-97.0507,-2.0,15.06,11111222 
TABS,ioos:station:wmo:42044:1,2015-03-19T08:30:00Z,26.1914,-97.0507,-2.0,15.06,11111222 
TABS,ioos:station:wmo:42044:1,2015-03-19T09:00:00Z,26.1914,-97.0507,-2.0,15.04,11111222 
TABS,ioos:station:wmo:42044:1,2015-03-19T09:30:00Z,26.1914,-97.0507,-2.0,15.03,11111222 
TABS,ioos:station:wmo:42044:1,2015-03-19T10:00:00Z,26.1914,-97.0507,-2.0,15.02,11111222 
TABS,ioos:station:wmo:42044:1,2015-03-19T10:30:00Z,26.1914,-97.0507,-2.0,15.02,11111222 
TABS,ioos:station:wmo:42044:1,2015-03-19T11:00:00Z,26.1914,-97.0507,-2.0,15.01,11111222 
TABS,ioos:station:wmo:42044:1,2015-03-19T11:30:00Z,26.1914,-97.0507,-2.0,14.99,11111222 
TABS,ioos:station:wmo:42044:1,2015-03-19T12:00:00Z,26.1914,-97.0507,-2.0,14.99,11111222 
TABS,ioos:station:wmo:42044:1,2015-03-19T12:30:00Z,26.1914,-97.0507,-2.0,15.0,11111222 
TABS,ioos:station:wmo:42044:1,2015-03-19T13:00:00Z,26.1914,-97.0507,-2.0,15.01,11111222 
TABS,ioos:station:wmo:42044:1,2015-03-19T13:30:00Z,26.1914,-97.0507,-2.0,15.03,11111222 
TABS,ioos:station:wmo:42044:1,2015-03-19T14:00:00Z,26.1914,-97.0507,-2.0,15.05,11111222 
TABS,ioos:station:wmo:42044:1,2015-03-19T14:30:00Z,26.1914,-97.0507,-2.0,15.07,11111222 
TABS,ioos:station:wmo:42044:1,2015-03-19T15:00:00Z,26.1914,-97.0507,-2.0,15.08,11111222 
TABS,ioos:station:wmo:42044:1,2015-03-19T15:30:00Z,26.1914,-97.0507,-2.0,15.1,11111222 
TABS,ioos:station:wmo:42044:1,2015-03-19T16:00:00Z,26.1914,-97.0507,-2.0,15.13,11111222 
TABS,ioos:station:wmo:42044:1,2015-03-19T16:30:00Z,26.1914,-97.0507,-2.0,15.16,11111222 
TABS,ioos:station:wmo:42044:1,2015-03-19T17:00:00Z,26.1914,-97.0507,-2.0,15.2,11111222 
TABS,ioos:station:wmo:42044:1,2015-03-19T17:30:00Z,26.1914,-97.0507,-2.0,15.23,11111222 
TABS,ioos:station:wmo:42044:1,2015-03-19T18:00:00Z,26.1914,-97.0507,-2.0,15.26,11111222 
TABS,ioos:station:wmo:42044:1,2015-03-19T18:30:00Z,26.1914,-97.0507,-2.0,15.28,11111222 
TABS,ioos:station:wmo:42044:1,2015-03-19T19:00:00Z,26.1914,-97.0507,-2.0,15.3,11111222 
TABS,ioos:station:wmo:42044:1,2015-03-19T19:30:00Z,26.1914,-97.0507,-2.0,15.31,11111222 
TABS,ioos:station:wmo:42044:1,2015-03-19T20:00:00Z,26.1914,-97.0507,-2.0,15.32,11111222 
TABS,ioos:station:wmo:42044:1,2015-03-19T20:30:00Z,26.1914,-97.0507,-2.0,15.33,11111222 
TABS,ioos:station:wmo:42044:1,2015-03-19T21:00:00Z,26.1914,-97.0507,-2.0,15.34,11111222 
TABS,ioos:station:wmo:42044:1,2015-03-19T21:30:00Z,26.1914,-97.0507,-2.0,15.35,11111222 
TABS,ioos:station:wmo:42044:1,2015-03-19T22:00:00Z,26.1914,-97.0507,-2.0,15.38,11111222 
TABS,ioos:station:wmo:42044:1,2015-03-19T22:30:00Z,26.1914,-97.0507,-2.0,15.39,11111222 
TABS,ioos:station:wmo:42044:1,2015-03-19T23:00:00Z,26.1914,-97.0507,-2.0,15.39,11111222 
TABS,ioos:station:wmo:42044:1,2015-03-19T23:30:00Z,26.1914,-97.0507,-2.0,15.39,11111222 
TABS,ioos:station:wmo:42044:1,2015-03-20T00:00:00Z,26.1914,-97.0507,-2.0,15.38,11111222 
TABS,ioos:station:wmo:42044:1,2015-03-20T00:30:00Z,26.1914,-97.0507,-2.0,15.37,11111222 
TABS,ioos:station:wmo:42044:1,2015-03-20T01:00:00Z,26.1914,-97.0507,-2.0,15.38,11111222 
TABS,ioos:station:wmo:42044:1,2015-03-20T01:30:00Z,26.1914,-97.0507,-2.0,15.36,11111222 
TABS,ioos:station:wmo:42044:1,2015-03-20T02:00:00Z,26.1914,-97.0507,-2.0,15.36,11111222 
TABS,ioos:station:wmo:42044:1,2015-03-20T02:30:00Z,26.1914,-97.0507,-2.0,15.37,11111222 
TABS,ioos:station:wmo:42044:1,2015-03-20T03:00:00Z,26.1914,-97.0507,-2.0,15.39,11111222 
TABS,ioos:station:wmo:42044:1,2015-03-20T03:30:00Z,26.1914,-97.0507,-2.0,15.37,11111222 
TABS,ioos:station:wmo:42044:1,2015-03-20T04:00:00Z,26.1914,-97.0507,-2.0,15.38,11111222 
TABS,ioos:station:wmo:42044:1,2015-03-20T04:30:00Z,26.1914,-97.0507,-2.0,15.41,11111222 
TABS,ioos:station:wmo:42044:1,2015-03-20T05:00:00Z,26.1914,-97.0507,-2.0,15.4,11111222 
TABS,ioos:station:wmo:42044:1,2015-03-20T05:30:00Z,26.1914,-97.0507,-2.0,15.35,11111222 
TABS,ioos:station:wmo:42044:1,2015-03-20T06:00:00Z,26.1914,-97.0507,-2.0,15.34,11111222 
TABS,ioos:station:wmo:42044:1,2015-03-20T06:30:00Z,26.1914,-97.0507,-2.0,15.34,11111222 
TABS,ioos:station:wmo:42044:1,2015-03-20T07:00:00Z,26.1914,-97.0507,-2.0,15.32,11111222 
TABS,ioos:station:wmo:42044:1,2015-03-20T07:30:00Z,26.1914,-97.0507,-2.0,15.32,11111222 
TABS,ioos:station:wmo:42044:1,2015-03-20T08:00:00Z,26.1914,-97.0507,-2.0,15.28,11111222 
TABS,ioos:station:wmo:42044:1,2015-03-20T08:30:00Z,26.1914,-97.0507,-2.0,15.27,11111222 
TABS,ioos:station:wmo:42044:1,2015-03-20T09:00:00Z,26.1914,-97.0507,-2.0,15.27,11111222 
TABS,ioos:station:wmo:42044:1,2015-03-20T09:30:00Z,26.1914,-97.0507,-2.0,15.29,11111222 
TABS,ioos:station:wmo:42044:1,2015-03-20T10:00:00Z,26.1914,-97.0507,-2.0,15.29,11111222 
TABS,ioos:station:wmo:42044:1,2015-03-20T10:30:00Z,26.1914,-97.0507,-2.0,15.32,11111222 
TABS,ioos:station:wmo:42044:1,2015-03-20T11:00:00Z,26.1914,-97.0507,-2.0,15.39,11111222 
TABS,ioos:station:wmo:42044:1,2015-03-20T11:30:00Z,26.1914,-97.0507,-2.0,15.48,11111222 
TABS,ioos:station:wmo:42044:1,2015-03-20T12:00:00Z,26.1914,-97.0507,-2.0,15.47,11111222 
TABS,ioos:station:wmo:42044:1,2015-03-20T12:30:00Z,26.1914,-97.0507,-2.0,15.5,11111222 
TABS,ioos:station:wmo:42044:1,2015-03-20T13:00:00Z,26.1914,-97.0507,-2.0,15.55,11111222 
TABS,ioos:station:wmo:42044:1,2015-03-20T13:30:00Z,26.1914,-97.0507,-2.0,15.44,11111222 
TABS,ioos:station:wmo:42044:1,2015-03-20T14:00:00Z,26.1914,-97.0507,-2.0,15.41,11111222 
TABS,ioos:station:wmo:42044:1,2015-03-20T14:30:00Z,26.1914,-97.0507,-2.0,15.37,11111222 
TABS,ioos:station:wmo:42044:1,2015-03-20T15:00:00Z,26.1914,-97.0507,-2.0,15.3,11111222 
TABS,ioos:station:wmo:42044:1,2015-03-20T15:30:00Z,26.1914,-97.0507,-2.0,15.6,11111222 
TABS,ioos:station:wmo:42044:1,2015-03-20T16:00:00Z,26.1914,-97.0507,-2.0,15.57,11111222 
TABS,ioos:station:wmo:42044:1,2015-03-20T16:30:00Z,26.1914,-97.0507,-2.0,15.52,11111222 
TABS,ioos:station:wmo:42044:1,2015-03-20T17:00:00Z,26.1914,-97.0507,-2.0,15.45,11111222 
TABS,ioos:station:wmo:42044:1,2015-03-20T17:30:00Z,26.1914,-97.0507,-2.0,15.46,11111222 
TABS,ioos:station:wmo:42044:1,2015-03-20T18:00:00Z,26.1914,-97.0507,-2.0,15.37,11111222 
TABS,ioos:station:wmo:42044:1,2015-03-20T18:30:00Z,26.1914,-97.0507,-2.0,15.21,11111222 
TABS,ioos:station:wmo:42044:1,2015-03-20T19:00:00Z,26.1914,-97.0507,-2.0,15.16,11111222 
TABS,ioos:station:wmo:42044:1,2015-03-20T19:30:00Z,26.1914,-97.0507,-2.0,15.2,11111222 
TABS,ioos:station:wmo:42044:1,2015-03-20T20:00:00Z,26.1914,-97.0507,-2.0,15.29,11111222 
TABS,ioos:station:wmo:42044:1,2015-03-20T20:30:00Z,26.1914,-97.0507,-2.0,15.32,11111222 
TABS,ioos:station:wmo:42044:1,2015-03-20T21:00:00Z,26.1914,-97.0507,-2.0,15.3,11111222 
TABS,ioos:station:wmo:42044:1,2015-03-20T21:30:00Z,26.1914,-97.0507,-2.0,15.24,11111222 
TABS,ioos:station:wmo:42044:1,2015-03-20T22:00:00Z,26.1914,-97.0507,-2.0,15.28,11111222 
TABS,ioos:station:wmo:42044:1,2015-03-20T22:30:00Z,26.1914,-97.0507,-2.0,15.26,11111222 
TABS,ioos:station:wmo:42044:1,2015-03-20T23:00:00Z,26.1914,-97.0507,-2.0,15.22,11111222 
TABS,ioos:station:wmo:42044:1,2015-03-20T23:30:00Z,26.1914,-97.0507,-2.0,15.25,11111222 
TABS,ioos:station:wmo:42044:1,2015-03-21T00:00:00Z,26.1914,-97.0507,-2.0,15.23,11111222 
TABS,ioos:station:wmo:42044:1,2015-03-21T00:30:00Z,26.1914,-97.0507,-2.0,15.17,11111222 
TABS,ioos:station:wmo:42044:1,2015-03-21T01:00:00Z,26.1914,-97.0507,-2.0,15.19,11111222 
TABS,ioos:station:wmo:42044:1,2015-03-21T01:30:00Z,26.1914,-97.0507,-2.0,15.25,11111222 
TABS,ioos:station:wmo:42044:1,2015-03-21T02:00:00Z,26.1914,-97.0507,-2.0,15.54,11111222 
TABS,ioos:station:wmo:42044:1,2015-03-21T02:30:00Z,26.1914,-97.0507,-2.0,15.42,11111222 
TABS,ioos:station:wmo:42044:1,2015-03-21T03:00:00Z,26.1914,-97.0507,-2.0,15.73,11111222 
TABS,ioos:station:wmo:42044:1,2015-03-21T03:30:00Z,26.1914,-97.0507,-2.0,15.65,11111222 
TABS,ioos:station:wmo:42044:1,2015-03-21T04:00:00Z,26.1914,-97.0507,-2.0,15.63,11111222 
TABS,ioos:station:wmo:42044:1,2015-03-21T04:30:00Z,26.1914,-97.0507,-2.0,15.65,11111222 
TABS,ioos:station:wmo:42044:1,2015-03-21T05:00:00Z,26.1914,-97.0507,-2.0,15.68,11111222 
TABS,ioos:station:wmo:42044:1,2015-03-21T05:30:00Z,26.1914,-97.0507,-2.0,15.58,11111222 
TABS,ioos:station:wmo:42044:1,2015-03-21T06:00:00Z,26.1914,-97.0507,-2.0,15.65,11111222 
TABS,ioos:station:wmo:42044:1,2015-03-21T06:30:00Z,26.1914,-97.0507,-2.0,15.79,11111222 
TABS,ioos:station:wmo:42044:1,2015-03-21T07:00:00Z,26.1914,-97.0507,-2.0,15.89,11111222 
TABS,ioos:station:wmo:42044:1,2015-03-21T07:30:00Z,26.1914,-97.0507,-2.0,15.7,11111222 
TABS,ioos:station:wmo:42044:1,2015-03-21T08:00:00Z,26.1914,-97.0507,-2.0,15.51,11111222 
TABS,ioos:station:wmo:42044:1,2015-03-21T08:30:00Z,26.1914,-97.0507,-2.0,15.52,11111222 
TABS,ioos:station:wmo:42044:1,2015-03-21T09:00:00Z,26.1914,-97.0507,-2.0,15.63,11111222 
TABS,ioos:station:wmo:42044:1,2015-03-21T09:30:00Z,26.1914,-97.0507,-2.0,16.51,11111222 
TABS,ioos:station:wmo:42044:1,2015-03-21T10:00:00Z,26.1914,-97.0507,-2.0,16.76,11111222 
TABS,ioos:station:wmo:42044:1,2015-03-21T10:30:00Z,26.1914,-97.0507,-2.0,17.05,11111222 
TABS,ioos:station:wmo:42044:1,2015-03-21T11:00:00Z,26.1914,-97.0507,-2.0,17.2,11111222 
TABS,ioos:station:wmo:42044:1,2015-03-21T11:30:00Z,26.1914,-97.0507,-2.0,17.26,11111222 
TABS,ioos:station:wmo:42044:1,2015-03-21T12:00:00Z,26.1914,-97.0507,-2.0,17.27,11111222 
TABS,ioos:station:wmo:42044:1,2015-03-21T12:30:00Z,26.1914,-97.0507,-2.0,17.32,11111222 
TABS,ioos:station:wmo:42044:1,2015-03-21T13:00:00Z,26.1914,-97.0507,-2.0,17.33,11111222 
TABS,ioos:station:wmo:42044:1,2015-03-21T13:30:00Z,26.1914,-97.0507,-2.0,17.3,11111222 
TABS,ioos:station:wmo:42044:1,2015-03-21T14:00:00Z,26.1914,-97.0507,-2.0,17.3,11111222 